Time,TemperatureF,DewpointF,PressureIn,WindDirection,WindDirectionDegrees,WindSpeedMPH,WindSpeedGustMPH,Humidity,HourlyPrecipIn,Conditions,Clouds,dailyrainin,SoftwareType,DateUTC
2013-05-28 00:01:00,47.0,47.0,29.92,SSW,197,5.0,12.0,100,0.00,,,0.36,,2013-05-28 07:01:00,
2013-05-28 00:11:00,47.0,47.0,29.92,SW,221,3.0,12.0,100,0.00,,,0.36,,2013-05-28 07:11:00,
2013-05-28 00:21:00,47.0,47.0,29.92,SW,221,3.0,12.0,100,0.00,,,0.36,,2013-05-28 07:21:00,
2013-05-28 00:31:00,47.0,47.0,29.93,South,177,4.0,12.0,100,0.00,,,0.36,,2013-05-28 07:31:00,
2013-05-28 00:41:00,47.0,47.0,29.93,South,177,4.0,12.0,100,0.00,,,0.36,,2013-05-28 07:41:00,
2013-05-28 00:52:00,47.0,47.0,29.93,SSW,194,2.0,11.0,100,0.00,,,0.36,,2013-05-28 07:52:00,
2013-05-28 01:01:00,47.0,47.0,29.93,SE,138,2.0,11.0,100,0.00,,,0.36,,2013-05-28 08:01:00,
2013-05-28 01:11:00,47.0,47.0,29.93,SE,138,2.0,11.0,100,0.00,,,0.36,,2013-05-28 08:11:00,
2013-05-28 01:21:00,47.0,47.0,29.93,SSE,149,5.0,12.0,100,0.00,,,0.36,,2013-05-28 08:21:00,
2013-05-28 01:32:00,48.0,48.0,29.94,West,259,0.0,9.0,100,0.00,,,0.35,,2013-05-28 08:32:00,
2013-05-28 01:41:00,48.0,48.0,29.94,West,259,0.0,9.0,100,0.00,,,0.35,,2013-05-28 08:41:00,
2013-05-28 01:52:00,48.0,48.0,29.94,SSW,211,3.0,14.0,100,0.01,,,0.35,,2013-05-28 08:52:00,
2013-05-28 02:01:00,48.0,48.0,29.94,North,0,0.0,9.0,100,0.01,,,0.35,,2013-05-28 09:01:00,
2013-05-28 02:11:00,48.0,48.0,29.94,North,0,0.0,10.0,100,0.01,,,0.35,,2013-05-28 09:11:00,
2013-05-28 02:21:00,48.0,48.0,29.94,North,0,0.0,10.0,100,0.01,,,0.35,,2013-05-28 09:21:00,
2013-05-28 02:33:00,47.0,47.0,29.94,WSW,250,3.0,13.0,100,0.01,,,0.30,,2013-05-28 09:33:00,
2013-05-28 02:42:00,47.0,47.0,29.94,WSW,250,3.0,13.0,100,0.01,,,0.30,,2013-05-28 09:42:00,
2013-05-28 02:53:00,47.0,47.0,29.94,SSE,152,0.0,9.0,100,0.00,,,0.30,,2013-05-28 09:53:00,
2013-05-28 03:02:00,47.0,47.0,29.94,SW,215,0.0,9.0,100,0.01,,,0.30,,2013-05-28 10:02:00,
2013-05-28 03:12:00,47.0,47.0,29.94,SW,215,0.0,9.0,100,0.01,,,0.30,,2013-05-28 10:12:00,
2013-05-28 03:22:00,47.0,47.0,29.93,SW,226,3.0,5.0,100,0.01,,,0.30,,2013-05-28 10:22:00,
2013-05-28 03:32:00,47.0,47.0,29.94,SSE,151,0.0,8.0,100,0.01,,,0.25,,2013-05-28 10:32:00,
2013-05-28 03:42:00,47.0,47.0,29.94,SSE,151,0.0,8.0,100,0.01,,,0.25,,2013-05-28 10:42:00,
2013-05-28 03:53:00,47.0,47.0,29.94,SE,135,1.0,6.0,100,0.01,,,0.25,,2013-05-28 10:53:00,
2013-05-28 04:02:00,47.0,47.0,29.94,SSW,201,2.0,9.0,100,0.00,,,0.25,,2013-05-28 11:02:00,
2013-05-28 04:11:00,47.0,47.0,29.94,SSW,201,2.0,9.0,100,0.00,,,0.25,,2013-05-28 11:11:00,
2013-05-28 04:22:00,47.0,47.0,29.95,North,357,3.0,14.0,100,0.02,,,0.25,,2013-05-28 11:22:00,
2013-05-28 04:31:00,47.0,47.0,29.95,West,263,0.0,10.0,100,0.03,,,0.25,,2013-05-28 11:31:00,
2013-05-28 04:41:00,47.0,47.0,29.95,West,263,0.0,10.0,100,0.03,,,0.25,,2013-05-28 11:41:00,
2013-05-28 04:52:00,47.0,47.0,29.95,SW,235,2.0,5.0,100,0.03,,,0.25,,2013-05-28 11:52:00,
2013-05-28 05:01:00,47.0,47.0,29.96,North,0,0.0,0.0,100,0.03,,,0.25,,2013-05-28 12:01:00,
2013-05-28 05:11:00,47.0,47.0,29.96,North,0,0.0,0.0,100,0.03,,,0.25,,2013-05-28 12:11:00,
2013-05-28 05:21:00,46.0,46.0,29.95,North,0,0.0,0.0,100,0.01,,,0.25,,2013-05-28 12:21:00,
2013-05-28 05:31:00,46.0,46.0,29.96,North,0,0.0,0.0,100,0.00,,,0.23,,2013-05-28 12:31:00,
2013-05-28 05:42:00,46.0,46.0,29.96,North,0,0.0,0.0,100,0.00,,,0.23,,2013-05-28 12:42:00,
2013-05-28 05:52:00,46.0,46.0,29.96,ESE,113,0.0,3.0,100,0.00,,,0.23,,2013-05-28 12:52:00,
2013-05-28 06:01:00,46.0,46.0,29.96,North,0,1.0,9.0,100,0.01,,,0.23,,2013-05-28 13:01:00,
2013-05-28 06:11:00,46.0,46.0,29.96,North,0,1.0,9.0,100,0.01,,,0.23,,2013-05-28 13:11:00,
2013-05-28 06:21:00,47.0,47.0,29.96,South,180,1.0,7.0,100,0.01,,,0.23,,2013-05-28 13:21:00,
2013-05-28 06:32:00,47.0,47.0,29.96,SSW,207,0.0,7.0,100,0.01,,,0.22,,2013-05-28 13:32:00,
2013-05-28 06:42:00,47.0,47.0,29.96,SSW,207,0.0,7.0,100,0.01,,,0.22,,2013-05-28 13:42:00,
2013-05-28 06:52:00,47.0,47.0,29.97,SSW,193,1.0,9.0,100,0.01,,,0.22,,2013-05-28 13:52:00,
2013-05-28 07:01:00,47.0,47.0,29.97,WSW,250,0.0,10.0,100,0.01,,,0.22,,2013-05-28 14:01:00,
2013-05-28 07:11:00,47.0,47.0,29.97,WSW,250,0.0,10.0,100,0.01,,,0.22,,2013-05-28 14:11:00,
2013-05-28 07:21:00,47.0,47.0,29.98,SSW,210,0.0,6.0,100,0.01,,,0.22,,2013-05-28 14:21:00,
2013-05-28 07:32:00,47.0,47.0,29.98,SE,134,1.0,5.0,100,0.01,,,0.20,,2013-05-28 14:32:00,
2013-05-28 07:41:00,47.0,47.0,29.98,SE,134,1.0,5.0,100,0.01,,,0.20,,2013-05-28 14:41:00,
2013-05-28 07:52:00,47.0,47.0,29.98,West,280,1.0,7.0,100,0.01,,,0.20,,2013-05-28 14:52:00,
2013-05-28 08:01:00,47.0,47.0,29.98,West,280,1.0,7.0,100,0.01,,,0.20,,2013-05-28 15:01:00,
2013-05-28 08:11:00,47.0,47.0,29.98,North,0,0.0,0.0,100,0.00,,,0.20,,2013-05-28 15:11:00,
2013-05-28 08:21:00,47.0,47.0,29.98,North,0,0.0,0.0,100,0.00,,,0.20,,2013-05-28 15:21:00,
2013-05-28 08:32:00,48.0,48.0,29.98,North,0,0.0,5.0,100,0.00,,,0.18,,2013-05-28 15:32:00,
2013-05-28 08:43:00,48.0,48.0,29.98,North,0,0.0,5.0,100,0.00,,,0.18,,2013-05-28 15:43:00,
2013-05-28 08:52:00,48.0,48.0,29.98,North,0,0.0,0.0,100,0.01,,,0.18,,2013-05-28 15:52:00,
2013-05-28 09:03:00,47.0,47.0,29.98,North,0,0.0,4.0,100,0.06,,,0.18,,2013-05-28 16:03:00,
2013-05-28 09:12:00,48.0,48.0,29.99,South,191,2.0,10.0,100,0.11,,,0.18,,2013-05-28 16:12:00,
2013-05-28 09:22:00,48.0,48.0,29.99,South,191,2.0,10.0,100,0.11,,,0.18,,2013-05-28 16:22:00,
2013-05-28 09:32:00,47.0,47.0,29.99,WNW,284,2.0,11.0,100,0.11,,,0.28,,2013-05-28 16:32:00,
2013-05-28 09:42:00,47.0,47.0,29.99,WNW,284,2.0,11.0,100,0.11,,,0.28,,2013-05-28 16:42:00,
2013-05-28 09:52:00,48.0,48.0,29.99,North,0,0.0,0.0,100,0.10,,,0.28,,2013-05-28 16:52:00,
2013-05-28 10:02:00,48.0,48.0,29.99,ENE,68,1.0,8.0,100,0.05,,,0.28,,2013-05-28 17:02:00,
2013-05-28 10:11:00,48.0,48.0,29.99,ENE,68,1.0,8.0,100,0.05,,,0.28,,2013-05-28 17:11:00,
2013-05-28 10:22:00,48.0,48.0,29.99,ENE,68,1.0,8.0,100,0.05,,,0.28,,2013-05-28 17:22:00,
2013-05-28 10:31:00,48.0,48.0,30.00,NE,51,2.0,12.0,100,0.00,,,0.28,,2013-05-28 17:31:00,
2013-05-28 10:41:00,49.0,49.0,29.99,East,100,0.0,9.0,100,0.00,,,0.27,,2013-05-28 17:41:00,
2013-05-28 10:52:00,49.0,49.0,29.99,East,100,0.0,9.0,100,0.00,,,0.27,,2013-05-28 17:52:00,
2013-05-28 11:01:00,49.0,49.0,30.00,ENE,57,4.0,10.0,100,0.00,,,0.27,,2013-05-28 18:01:00,
2013-05-28 11:11:00,49.0,49.0,30.00,ENE,57,4.0,10.0,100,0.00,,,0.27,,2013-05-28 18:11:00,
2013-05-28 11:21:00,49.0,49.0,30.00,WNW,285,5.0,8.0,100,0.00,,,0.27,,2013-05-28 18:21:00,
2013-05-28 11:32:00,49.0,49.0,30.01,SW,214,7.0,12.0,100,0.00,,,0.24,,2013-05-28 18:32:00,
2013-05-28 11:42:00,49.0,49.0,30.01,WSW,250,3.0,13.0,100,0.00,,,0.24,,2013-05-28 18:42:00,
2013-05-28 11:52:00,49.0,49.0,30.01,WSW,250,3.0,13.0,100,0.00,,,0.24,,2013-05-28 18:52:00,
2013-05-28 12:01:00,49.0,49.0,30.01,West,280,6.0,9.0,100,0.00,,,0.24,,2013-05-28 19:01:00,
2013-05-28 12:11:00,49.0,49.0,30.01,West,280,6.0,9.0,100,0.00,,,0.24,,2013-05-28 19:11:00,
2013-05-28 12:21:00,50.0,50.0,30.01,SW,225,3.0,10.0,100,0.00,,,0.24,,2013-05-28 19:21:00,
2013-05-28 12:31:00,50.0,50.0,30.02,WNW,285,2.0,14.0,100,0.00,,,0.24,,2013-05-28 19:31:00,
2013-05-28 12:41:00,50.0,50.0,30.02,WNW,285,2.0,14.0,100,0.00,,,0.24,,2013-05-28 19:41:00,
2013-05-28 12:52:00,50.0,50.0,30.02,South,180,5.0,14.0,100,0.00,,,0.24,,2013-05-28 19:52:00,
2013-05-28 13:01:00,51.0,51.0,30.02,WSW,253,8.0,11.0,100,0.00,,,0.24,,2013-05-28 20:01:00,
2013-05-28 13:11:00,51.0,51.0,30.02,WSW,253,8.0,11.0,100,0.00,,,0.24,,2013-05-28 20:11:00,
2013-05-28 13:22:00,51.0,51.0,30.02,East,89,3.0,15.0,100,0.00,,,0.24,,2013-05-28 20:22:00,
2013-05-28 13:32:00,51.0,51.0,30.01,SSE,166,2.0,18.0,100,0.00,,,0.24,,2013-05-28 20:32:00,
2013-05-28 13:42:00,51.0,51.0,30.01,SSE,166,2.0,18.0,100,0.00,,,0.24,,2013-05-28 20:42:00,
2013-05-28 13:52:00,51.0,51.0,30.01,SE,130,6.0,15.0,100,0.00,,,0.24,,2013-05-28 20:52:00,
2013-05-28 14:01:00,50.0,50.0,30.02,WSW,240,1.0,11.0,99,0.00,,,0.24,,2013-05-28 21:01:00,
2013-05-28 14:11:00,50.0,50.0,30.02,South,182,2.0,15.0,99,0.00,,,0.24,,2013-05-28 21:11:00,
2013-05-28 14:21:00,50.0,50.0,30.02,South,182,2.0,15.0,99,0.00,,,0.24,,2013-05-28 21:21:00,
2013-05-28 14:32:00,51.0,51.0,30.02,NNE,29,2.0,11.0,99,0.00,,,0.24,,2013-05-28 21:32:00,
2013-05-28 14:43:00,51.0,50.0,30.01,SW,217,6.0,13.0,97,0.00,,,0.24,,2013-05-28 21:43:00,
2013-05-28 14:53:00,51.0,50.0,30.01,SW,217,6.0,13.0,97,0.00,,,0.24,,2013-05-28 21:53:00,
2013-05-28 15:02:00,52.0,51.0,30.01,NNE,28,3.0,13.0,96,0.00,,,0.24,,2013-05-28 22:02:00,
2013-05-28 15:12:00,52.0,51.0,30.01,North,357,0.0,10.0,95,0.00,,,0.24,,2013-05-28 22:12:00,
2013-05-28 15:22:00,52.0,51.0,30.01,North,357,0.0,10.0,95,0.00,,,0.24,,2013-05-28 22:22:00,
2013-05-28 15:32:00,52.0,51.0,30.01,SW,231,2.0,15.0,95,0.00,,,0.22,,2013-05-28 22:32:00,
2013-05-28 15:42:00,52.0,50.0,30.01,WSW,238,4.0,16.0,94,0.00,,,0.22,,2013-05-28 22:42:00,
2013-05-28 15:52:00,52.0,50.0,30.01,WSW,238,4.0,16.0,94,0.00,,,0.22,,2013-05-28 22:52:00,
2013-05-28 16:02:00,53.0,51.0,30.00,West,263,5.0,13.0,94,0.00,,,0.22,,2013-05-28 23:02:00,
2013-05-28 16:11:00,53.0,51.0,30.00,WSW,250,6.0,17.0,92,0.00,,,0.22,,2013-05-28 23:11:00,
2013-05-28 16:21:00,53.0,51.0,30.00,WSW,250,6.0,17.0,92,0.00,,,0.22,,2013-05-28 23:21:00,
2013-05-28 16:32:00,52.0,50.0,29.99,SW,235,8.0,17.0,94,0.00,,,0.20,,2013-05-28 23:32:00,
2013-05-28 16:41:00,52.0,50.0,29.99,SW,235,8.0,17.0,94,0.00,,,0.20,,2013-05-28 23:41:00,
2013-05-28 16:52:00,52.0,51.0,29.99,WNW,282,6.0,15.0,95,0.00,,,0.20,,2013-05-28 23:52:00,
2013-05-28 17:01:00,52.0,51.0,29.99,West,268,7.0,13.0,95,0.00,,,0.20,,2013-05-29 00:01:00,
2013-05-28 17:11:00,52.0,51.0,29.99,West,268,7.0,13.0,95,0.00,,,0.20,,2013-05-29 00:11:00,
2013-05-28 17:21:00,51.0,50.0,29.98,SSW,198,4.0,12.0,95,0.00,,,0.20,,2013-05-29 00:21:00,
2013-05-28 17:32:00,51.0,50.0,29.98,SSW,198,6.0,12.0,95,0.00,,,0.19,,2013-05-29 00:32:00,
2013-05-28 17:41:00,51.0,50.0,29.98,SSW,198,6.0,12.0,95,0.00,,,0.19,,2013-05-29 00:41:00,
2013-05-28 17:52:00,51.0,49.0,29.97,West,267,5.0,13.0,94,0.00,,,0.19,,2013-05-29 00:52:00,
2013-05-28 18:01:00,51.0,49.0,29.96,SW,225,3.0,10.0,93,0.00,,,0.19,,2013-05-29 01:01:00,
2013-05-28 18:11:00,51.0,49.0,29.95,SSE,156,4.0,9.0,92,0.00,,,0.19,,2013-05-29 01:11:00,
2013-05-28 18:21:00,51.0,49.0,29.95,SSE,156,4.0,9.0,92,0.00,,,0.19,,2013-05-29 01:21:00,
2013-05-28 18:31:00,51.0,49.0,29.93,North,0,0.0,10.0,92,0.00,,,0.19,,2013-05-29 01:31:00,
2013-05-28 18:41:00,51.0,49.0,29.93,North,0,0.0,10.0,92,0.00,,,0.19,,2013-05-29 01:41:00,
2013-05-28 18:52:00,51.0,48.0,29.92,North,0,0.0,0.0,91,0.00,,,0.19,,2013-05-29 01:52:00,
2013-05-28 19:02:00,52.0,49.0,29.92,North,0,0.0,0.0,91,0.00,,,0.19,,2013-05-29 02:02:00,
2013-05-28 19:11:00,51.0,49.0,29.90,SW,226,0.0,11.0,92,0.00,,,0.19,,2013-05-29 02:11:00,
2013-05-28 19:21:00,51.0,49.0,29.90,SW,226,0.0,11.0,92,0.00,,,0.19,,2013-05-29 02:21:00,
2013-05-28 19:31:00,50.0,48.0,29.89,SSW,201,0.0,11.0,92,0.00,,,0.19,,2013-05-29 02:31:00,
2013-05-28 19:42:00,50.0,48.0,29.88,South,191,2.0,11.0,92,0.00,,,0.19,,2013-05-29 02:42:00,
2013-05-28 19:51:00,50.0,48.0,29.88,South,191,2.0,11.0,92,0.00,,,0.19,,2013-05-29 02:51:00,
2013-05-28 20:01:00,50.0,48.0,29.86,SW,228,1.0,10.0,92,0.00,,,0.19,,2013-05-29 03:01:00,
2013-05-28 20:11:00,50.0,48.0,29.86,SW,228,1.0,10.0,92,0.00,,,0.19,,2013-05-29 03:11:00,
2013-05-28 20:21:00,50.0,48.0,29.86,North,0,0.0,10.0,92,0.00,,,0.19,,2013-05-29 03:21:00,
2013-05-28 20:33:00,50.0,48.0,29.85,SSE,162,2.0,6.0,92,0.00,,,0.19,,2013-05-29 03:33:00,
2013-05-28 20:43:00,50.0,48.0,29.85,SSE,162,2.0,6.0,92,0.00,,,0.19,,2013-05-29 03:43:00,
2013-05-28 20:53:00,49.0,47.0,29.85,SW,235,5.0,11.0,94,0.00,,,0.19,,2013-05-29 03:53:00,
2013-05-28 21:02:00,49.0,48.0,29.84,North,0,0.0,11.0,95,0.00,,,0.19,,2013-05-29 04:02:00,
2013-05-28 21:12:00,48.0,47.0,29.83,SE,134,0.0,8.0,97,0.01,,,0.19,,2013-05-29 04:12:00,
2013-05-28 21:23:00,48.0,47.0,29.83,SE,134,0.0,8.0,97,0.01,,,0.19,,2013-05-29 04:23:00,
2013-05-28 21:32:00,48.0,47.0,29.83,SSW,205,0.0,10.0,98,0.01,,,0.20,,2013-05-29 04:32:00,
2013-05-28 21:42:00,48.0,47.0,29.83,SSW,205,0.0,10.0,98,0.01,,,0.20,,2013-05-29 04:42:00,
2013-05-28 21:52:00,48.0,47.0,29.83,SSE,166,0.0,10.0,97,0.01,,,0.20,,2013-05-29 04:52:00,
2013-05-28 22:02:00,48.0,48.0,29.83,North,0,2.0,12.0,99,0.03,,,0.22,,2013-05-29 05:02:00,
2013-05-28 22:11:00,48.0,48.0,29.83,North,0,2.0,12.0,99,0.03,,,0.22,,2013-05-29 05:11:00,
2013-05-28 22:22:00,48.0,48.0,29.83,North,0,7.0,18.0,99,0.04,,,0.23,,2013-05-29 05:22:00,
2013-05-28 22:32:00,48.0,48.0,29.83,ESE,121,6.0,19.0,100,0.07,,,0.28,,2013-05-29 05:32:00,
2013-05-28 22:41:00,48.0,48.0,29.83,ESE,121,6.0,19.0,100,0.07,,,0.28,,2013-05-29 05:41:00,
2013-05-28 22:52:00,47.0,47.0,29.83,SSW,207,4.0,19.0,100,0.10,,,0.29,,2013-05-29 05:52:00,
2013-05-28 23:01:00,47.0,47.0,29.82,SSE,154,6.0,11.0,100,0.09,,,0.31,,2013-05-29 06:01:00,
2013-05-28 23:11:00,47.0,47.0,29.82,SSE,154,6.0,11.0,100,0.09,,,0.31,,2013-05-29 06:11:00,
2013-05-28 23:21:00,47.0,47.0,29.81,SSE,161,4.0,14.0,100,0.10,,,0.33,,2013-05-29 06:21:00,
2013-05-28 23:31:00,47.0,47.0,29.79,ESE,114,4.0,17.0,100,0.08,,,0.35,,2013-05-29 06:31:00,
2013-05-28 23:41:00,47.0,47.0,29.79,ESE,114,4.0,17.0,100,0.08,,,0.35,,2013-05-29 06:41:00,
2013-05-28 23:51:00,47.0,47.0,29.78,SE,133,9.0,16.0,100,0.06,,,0.36,,2013-05-29 06:51:00,